Montpelier, VT

11:55 AM EST on November 13, 2019 (GMT -0500)
Knapp State

Weather History for KMPV - August, 2019

Change the Weather History Date:

Friday, August 30, 2019

  Actual Average Record
Temperature  
Mean Temperature 62 °F 63 °F  
Max Temperature 75 °F 75 °F 90 °F (1953)
Min Temperature 48 °F 52 °F 34 °F (1965)
Degree Days  
Heating Degree Days 3 4  
Month to date heating degree days 52 65  
Since 1 June heating degree days 205 226  
Since 1 July heating degree days 61 105  
Cooling Degree Days 0 2  
Month to date cooling degree days 53 76  
Year to date cooling degree days 211 244  
Since 1 June cooling degree days 210 234  
Growing Degree Days 12 (Base 50)    
Moisture  
Dew Point 52 °F    
Average Humidity 75    
Maximum Humidity 100    
Minimum Humidity 42    
Precipitation  
Precipitation T in 0.10 in 1.47 in (1985)
Month to date precipitation 4.25 3.91  
Year to date precipitation 34.80 24.70  
Sea Level Pressure  
Sea Level Pressure 29.97 in    
Wind  
Wind Speed 4 mph ()    
Max Wind Speed 15 mph    
Max Gust Speed 23 mph    
Visibility 8.4 miles    
Events Rain    
T = Trace of Precipitation, MM = Missing Value Source: Averaged Metar Reports

Daily Weather History Graph

Daily Weather History Graph

Search for Another Location

Airport or City:

Astronomy

Aug. 30, 2019 Rise Set
Actual Time 6:10 AM EDT 7:30 PM EDT
Civil Twilight 5:40 AM EDT 8:00 PM EDT
Nautical Twilight 5:04 AM EDT 8:36 PM EDT
Astronomical Twilight 4:25 AM EDT 9:14 PM EDT
Moon 6:05 AM EDT (8/30) 8:05 PM EDT (8/30)
Length of Visible Light 14h 19m
Length of Day
13h 19m
New Moon, 0% of the Moon is Illuminated
Aug 30
New Moon
Sep 5
First Quarter
Sep 14
Full
Sep 21
Last Quarter
Sep 28
New

Hourly Weather History & Observations

Time (EDT) Temp. Dew Point Humidity Pressure Visibility Wind Dir Wind Speed Gust Speed Precip Events Conditions
12:51 AM 59.0 °F 51.1 °F 75% 29.96 in 10.0 mi Calm Calm - N/A   Clear
1:51 AM 61.0 °F 51.1 °F 70% 29.96 in 10.0 mi SSW 5.8 mph - N/A   Clear
2:51 AM 54.0 °F 52.0 °F 93% 29.96 in 10.0 mi NE 3.5 mph - N/A   Clear
3:51 AM 51.1 °F 51.1 °F 100% 29.95 in 10.0 mi Calm Calm - N/A   Clear
4:11 AM 52.0 °F 51.1 °F 97% 29.95 in 8.0 mi Calm Calm - N/A   Partly Cloudy
4:37 AM 51.1 °F 50.0 °F 96% 29.94 in 1.8 mi NNW 3.5 mph - N/A   Partly Cloudy
4:40 AM 50.0 °F 50.0 °F 100% 29.94 in 1.0 mi North 3.5 mph - N/A   Mist
4:51 AM 48.9 °F 48.9 °F 100% 29.95 in 0.8 mi NNW 3.5 mph - N/A   Mist
5:13 AM 50.0 °F 50.0 °F 100% 29.94 in 1.2 mi Calm Calm - N/A   Mostly Cloudy
5:16 AM 50.0 °F 50.0 °F 100% 29.94 in 2.0 mi Calm Calm - N/A   Mostly Cloudy
5:25 AM 50.0 °F 50.0 °F 100% 29.94 in 7.0 mi Calm Calm - N/A   Partly Cloudy
5:51 AM 48.9 °F 48.9 °F 100% 29.96 in 10.0 mi Calm Calm - N/A   Clear
6:51 AM 57.0 °F 53.1 °F 87% 29.96 in 10.0 mi Calm Calm - N/A   Clear
7:51 AM 62.1 °F 54.0 °F 75% 29.94 in 10.0 mi SSE 9.2 mph - N/A   Clear
8:51 AM 64.9 °F 55.0 °F 70% 29.93 in 10.0 mi SSE 12.7 mph - N/A   Clear
9:51 AM 68.0 °F 55.9 °F 65% 29.93 in 10.0 mi South 4.6 mph - N/A   Mostly Cloudy
10:51 AM 68.0 °F 55.9 °F 65% 29.94 in 10.0 mi SSW 8.1 mph - 0.00 in Rain Light Rain
11:51 AM 71.1 °F 59.0 °F 66% 29.94 in 10.0 mi WSW 10.4 mph 19.6 mph 0.00 in   Mostly Cloudy
12:51 PM 71.1 °F 57.9 °F 63% 29.95 in 10.0 mi SW 10.4 mph 18.4 mph N/A   Mostly Cloudy
1:51 PM 73.0 °F 57.9 °F 59% 29.96 in 10.0 mi WSW 8.1 mph 17.3 mph N/A   Scattered Clouds
2:51 PM 73.0 °F 54.0 °F 51% 29.96 in 10.0 mi WSW 6.9 mph - N/A   Partly Cloudy
3:51 PM 75.0 °F 55.0 °F 50% 29.96 in 10.0 mi Variable 4.6 mph - N/A   Overcast
4:51 PM 75.9 °F 51.1 °F 42% 29.96 in 10.0 mi West 9.2 mph - N/A   Partly Cloudy
5:51 PM 73.0 °F 50.0 °F 44% 29.98 in 10.0 mi West 9.2 mph - N/A   Partly Cloudy
6:51 PM 70.0 °F 50.0 °F 49% 30.01 in 10.0 mi WNW 8.1 mph - N/A   Scattered Clouds
7:51 PM 66.9 °F 48.9 °F 52% 30.03 in 10.0 mi WNW 10.4 mph - N/A   Clear
8:51 PM 66.0 °F 48.9 °F 54% 30.05 in 10.0 mi WNW 8.1 mph - N/A   Clear
9:51 PM 59.0 °F 50.0 °F 72% 30.09 in 10.0 mi Calm Calm - N/A   Clear
10:51 PM 55.9 °F 50.0 °F 80% 30.12 in 10.0 mi Variable 3.5 mph - N/A   Clear
11:51 PM 55.0 °F 48.9 °F 80% 30.13 in 10.0 mi South 3.5 mph - N/A   Clear